This demonstration page uses our WeatherBlox Daily Observations layout. Learn more.

Left ArrowRight Arrow

Hourly Observations for February 13, 2017

Temp ( °F °C ) Dew Point ( °F °C ) Humidity (%) Winds ( mph kmh ) Pressure ( in mb ) Visibility ( mi km ) Precip ( " mm )
12:53 am 00:53 Clear 35 1.7 22 -5.6 59 59 WNW 10 17 30.33 1027 10 16 N/A
1:53 am 01:53 Clear 32 undefined 22 -5.6 66 66 NW 7 11 30.34 1027 10 16 N/A
2:53 am 02:53 Clear 31 -0.6 21 -6.1 67 67 NW 7 11 30.34 1027 10 16 N/A
3:53 am 03:53 Clear 27 -2.8 20 -6.7 75 75 W 3 6 30.34 1027 10 16 N/A
4:53 am 04:53 Clear 28 -2.2 21 -6.1 75 75 W 5 7 30.35 1028 10 16 N/A
5:53 am 05:53 Clear 24 -4.4 20 -6.7 84 84 N N/A 30.35 1028 10 16 N/A
6:53 am 06:53 Clear 22 -5.6 20 -6.7 92 92 N N/A 30.36 1028 10 16 N/A
7:53 am 07:53 Sunny 21 -6.1 19 -7.2 92 92 W 3 6 30.38 1029 10 16 N/A
8:53 am 08:53 Sunny 32 undefined 24 -4.4 73 73 WSW 5 7 30.39 1029 10 16 N/A
9:53 am 09:53 Sunny 37 2.8 24 -4.4 59 59 WNW 5 7 30.39 1029 10 16 N/A
10:53 am 10:53 Sunny 40 4.4 22 -5.6 49 49 NW 3 6 30.37 1029 10 16 N/A
11:53 am 11:53 Sunny 42 5.6 21 -6.1 43 43 WNW 6 9 30.37 1029 10 16 N/A
12:53 pm 12:53 Sunny 44 6.7 21 -6.1 40 40 VRB 7 11 30.33 1027 10 16 N/A
2:53 pm 14:53 Sunny 47 8.3 17 -8.3 30 30 WNW 7 11 30.26 1025 10 16 N/A
3:53 pm 15:53 Sunny 50 10 17 -8.3 27 27 VRB 5 7 30.24 1024 10 16 N/A
4:53 pm 16:53 Sunny 48 8.9 16 -8.9 28 28 WNW 5 7 30.21 1023 10 16 N/A
5:53 pm 17:53 Sunny 46 7.8 18 -7.8 32 32 SW 6 9 30.19 1022 10 16 N/A
6:53 pm 18:53 Clear 39 3.9 19 -7.2 45 45 WSW 3 6 30.19 1022 10 16 N/A
7:53 pm 19:53 Clear 32 undefined 22 -5.6 66 66 N N/A 30.17 1022 10 16 N/A
8:53 pm 20:53 Clear 27 -2.8 20 -6.7 75 75 N N/A 30.17 1022 10 16 N/A
9:53 pm 21:53 Clear 28 -2.2 21 -6.1 75 75 N N/A 30.15 1021 10 16 N/A
10:53 pm 22:53 Clear 28 -2.2 23 -5 81 81 N N/A 30.13 1020 10 16 N/A
11:53 pm 23:53 Partly Cloudy 32 undefined 25 -3.9 75 75 N N/A 30.10 1019 10 16 N/A

Powered by AerisWeather